Retour au catalogue

CRRES DEB

CANISTER

ActifHEO
NORAD 20811·DEBRIS·🇺🇸 United States

Lancé Jul 25, 1990 depuis Cape Canaveral Space Force Station

Loading…

Prochains Passages (prochaines 24 heures)

TLE

FraisSource: Space-Track

Époque: Sep 14, 2026, 01:55 UTC

1 20811U 90065C   26257.08024522  .00001072  00000-0  63308-3 0  9990
2 20811  17.4847 200.2233 6928087  67.1839 349.1677  2.70343195123862

Suivez CRRES DEB en temps réel avec AllMySat

Download on the App Store